Weather in Ous

Russia / Sverdlovsk Oblast     60°54′24″N   61°31′06″E
temp.,
°C
wind,
m/s
gust,
m/s
humid.,
%
clouds,
%
prec.,
mm/h
press.,
hPa
HPBL,
m
11 may, tue
tue1123:00+14s4135393 0.0 1024328
02:00+13s31357100 0.0 1023344
05:00+13ssw31160100 0.0 1022290
08:00+16wnw255786 0.0 1023318
11:00+15wsw2680100 0.7 1024466
14:00+14n357698 0.3 1025463
17:00+17n3451100 0.3 10251026
20:00+15nnw4837100 0.0 1027545
12 may, wed
wed1223:00+10nw254799 0.0 1027103
02:00+10w225351 0.0 102822
05:00+10w2856100 0.0 1028245
08:00+14w365175 0.0 1027467
11:00+17w475157 0.0 1026858
14:00+22wnw6103831 0.0 10242019
17:00+22wnw5103859 0.0 10242178
20:00+20w4948100 0.0 1023476
13 may, thu
thu1323:00+15w396869 0.0 1023179
02:00+14w3107225 0.0 1023227
05:00+13w38795 0.0 1024150
08:00+19nw4125744 0.0 10241140
11:00+22nnw6104258 0.0 10252142
14:00+23nnw573660 0.0 10252353
17:00+24nnw463472 0.0 10252325
20:00+21w114818 0.0 102411
14 may, fri
fri1423:00+16ssw22610 0.0 102411
02:00+14sw39712 0.0 1023155
05:00+14sw387427 0.0 1022146
08:00+21wsw4104899 0.0 1021496
11:00+25w48335 0.0 10202215
14:00+24wnw583796 0.0 10191960
17:00+22wsw494784 0.3 1019351
20:00+22w1149100 0.0 101832
15 may, sat
sat1523:00+16wnw237799 1.1 101890
02:00+15wsw398732 0.1 1017214
05:00+15sw38876 0.1 1017198
08:00+19wsw41063100 0.0 1016455
11:00+24w51041100 0.0 10151698
14:00+26w693642 0.0 10152700
17:00+26wnw5103165 0.0 10143274
20:00+23nw363895 0.0 1014214